sat.trackr.live / text

‹ back to catalog

COSMOS 2493 (SKRL-756 1)

NORAD 39490 · 2013-078A

PAYLOAD ACTIVE UNKNOWN

§ Identity

Operator
Country
CIS
Launch date
2013-12-28
Launch site
PLMSC
Launch vehicle
Mass (kg)
RCS (m²)
0.68

Purposes: military

External: N2YO · Heavens-Above · Gunter

§ Orbital elements

Epoch: 2026-09-20T04:40:10.561152Z

Period
95.84 min
Inclination
82.4152°
Eccentricity
0.0011208
Mean motion
15.02573736 rev/d
Perigee alt
551.2 km
Apogee alt
566.7 km
Semi-major
6,937.1 km
B*
1.1380e-4
RAAN
168.2208°
Arg perigee
286.0235°
Mean anomaly
73.9755°
Rev number
69,222

§ Raw data

COSMOS 2493 (SKRL-756 1)1 39490U 13078A   26263.19456668  .00001542  00000+0  11380-3 0  99952 39490  82.4152 168.2208 0011208 286.0235  73.9755 15.02573736692220

JSON: /api/v1/satellites/39490 · /tle

For live sub-satellite position, see the globe view (requires WebGL).

§ Visibility from observer

Set your observer location to see the next 7 days of passes ≥ 10°. The values pass through the URL so the page stays shareable.

No JS? Fill the form by hand. The geolocation button needs JavaScript.